Location: ??????
(55.8000°N, 37.4500°E)
Time: 14:47:03
(UTC+00:00)

Daily predictions for brighter satellites

Satellite Brightness Start Highest point End
(mag) Time Altitude Azimuth Time Altitude Azimuth Time Altitude Azimuth
Envisat 3.1 13:43:01 10° SE 13:47:59 56° ENE 13:52:58 10° N
H-2A R/B 2.7 13:44:47 10° SE 13:48:55 49° ENE 13:52:56 10° N
SJ 16-02 4.3 13:45:59 10° NW 13:49:10 19° W 13:52:19 10° SW
Cosmos 1766 Rocket 4.2 13:46:33 10° NNW 13:50:57 62° W 13:55:17 10° S
NOAA 12 4.5 13:46:14 10° SE 13:51:13 42° ENE 13:56:13 10° N
YAOGAN 1 4.5 13:51:00 10° ENE 13:52:18 11° NE 13:53:35 10° NNE
Cosmos 2360 Rocket 2.3 13:47:19 10° SW 13:52:57 84° NW 13:58:38 10° NE
Cosmos 1184 Rocket 4.2 13:51:02 10° NNW 13:54:09 43° W 13:57:15 10° S
SL-08 R/B 3.5 13:50:22 10° NNE 13:55:21 89° E 14:00:14 10° SSW
Cosmos 1743 Rocket 3.7 13:51:05 10° N 13:55:31 54° ENE 13:59:54 10° SSE
SJ-7 4.3 13:55:51 10° SSE 13:59:49 72° ENE 14:03:49 10° NNW
Cosmos 1408 Rocket 3.7 13:56:05 10° NNW 14:00:32 83° W 14:04:53 10° S
Cosmos 2219 Rocket 2.5 13:55:15 10° S 14:00:44 53° ESE 14:06:13 10° NE
MOS 1-B 4.3 13:56:03 10° SSE 14:01:51 77° ENE 14:07:41 10° NNW
Sich 1 3.9 13:58:10 10° N 14:02:05 30° ENE 14:05:56 10° SE
ADEOS Rocket 3.7 13:57:29 10° NNE 14:04:58 58° E 14:12:38 10° S
H-2A R/B 3.6 14:03:08 10° E 14:06:05 15° NE 14:08:59 10° NNE
Cosmos 1862 3.4 14:02:18 10° N 14:06:19 56° ENE 14:10:17 10° SSE
Cosmos 44 3.7 14:01:22 10° NW 14:06:25 52° NNE 14:11:39 10° ESE
Cosmos 1980 Rocket 3.7 14:01:57 10° W 14:06:31 25° NNW 14:11:07 10° NNE
Cosmos 1814 Rocket 4.3 14:02:18 10° S 14:07:26 51° ESE 14:12:34 10° NE
GEOS 3 Rocket 4.3 14:02:35 10° NE 14:07:45 48° NNW 14:12:55 10° W
Okean-O 4.1 14:06:07 10° E 14:08:56 17° NE 14:11:46 10° NNE
CZ-4B R/B 3.2 14:04:26 10° SE 14:09:40 59° ENE 14:14:53 10° NNW
Nadezhda 1 Rocket 4.4 14:03:45 10° SSE 14:09:40 43° E 14:15:39 10° NNE
SL-16 R/B 3.2 14:04:33 10° WSW 14:09:56 42° NW 14:15:22 10° NNE
Cosmos 2237 Rocket 3.2 14:07:17 10° SSE 14:11:54 27° ESE 14:16:30 10° NE
Cosmos 1842 Rocket 3.6 14:09:29 10° S 14:13:42 57° E 14:17:59 10° NNE
Cosmos 2315 Rocket 4.3 14:08:20 10° SSW 14:14:34 72° WNW 14:20:55 10° N
Cosmos 1805 Rocket 3.8 14:11:03 10° N 14:15:23 46° ENE 14:19:41 10° SE
NOAA 11 4.5 14:10:25 10° SE 14:15:32 45° ENE 14:20:42 10° N
AQUARIUS 4.3 14:11:30 10° SE 14:15:52 52° ENE 14:20:16 10° N
Okean O Rocket 1.7 14:13:53 10° SE 14:18:07 54° ENE 14:22:25 10° N
Cosmos 2369 Rocket 3.1 14:14:01 10° NNW 14:19:01 30° NNE 14:23:58 10° E
Cosmos 2154 Rocket 4.0 14:12:59 10° N 14:19:19 71° ENE 14:25:40 10° SSE
Cosmos 1570 Rocket 4.1 14:14:16 10° SSW 14:19:31 69° ESE 14:24:47 10° NNE
Cosmos 1666 Rocket 4.3 14:17:42 10° N 14:21:37 30° ENE 14:25:31 10° SE
Cosmos 1610 Rocket 4.5 14:15:59 10° N 14:22:23 74° ENE 14:28:39 10° SSE
Cosmos 2322 3.7 14:17:05 10° SSW 14:22:46 89° ESE 14:28:30 10° NE
CORIOLIS 4.2 14:17:28 10° SE 14:22:48 62° ENE 14:28:12 10° NNW
FengYun 1-2 T 4.3 14:17:56 10° SE 14:23:18 53° ENE 14:28:40 10° N
NOSS 0 Rocket 4.5 14:17:33 10° S 14:23:18 40° ESE 14:28:54 11° NE
SL-16 R/B 4.2 14:18:20 10° N 14:23:34 29° NW 14:28:47 10° WSW
Cosmos 2084 Rocket 3.5 14:21:15 10° WSW 14:25:24 76° NW 14:29:03 14° NE
CZ-4C R/B 3.2 14:23:55 10° NNE 14:27:29 54° ESE 14:31:04 10° S
Cosmos 1763 Rocket 4.0 14:23:59 10° SW 14:29:00 59° WNW 14:34:02 10° NNE
Cosmos 2341 Rocket 4.2 14:23:25 10° N 14:29:32 51° ENE 14:35:39 10° SE
Landsat 5 3.7 14:25:42 10° NNE 14:29:59 57° ESE 14:34:23 10° S
Cosmos 1980 4.3 14:24:57 10° S 14:30:07 37° ESE 14:34:42 13° NE
CZ-4 R/B 2.7 14:27:25 10° ESE 14:30:17 19° ENE 14:33:11 10° N
Cosmos 1607 4.1 14:28:00 10° SW 14:34:23 83° NW 14:40:16 13° NE
Cosmos 1869 3.7 14:32:54 10° SSW 14:36:57 67° WNW 14:41:05 10° N
YAOGAN 6 2.9 14:35:03 10° S 14:38:41 70° WSW 14:42:19 10° NNW
Cosmos 1939 Rocket 3.3 14:37:02 10° SE 14:40:36 36° ENE 14:44:14 10° N
Cosmos 405 3.0 14:37:49 10° SSW 14:41:18 82° WNW 14:44:49 10° NNE
H-2A R/B 2.1 14:37:25 10° NNE 14:41:31 55° ESE 14:45:40 10° S
Cosmos 389 Rocket 3.5 14:39:45 10° SSE 14:42:36 25° E 14:43:31 22° ENE
Cosmos 2285 Rocket 4.1 14:37:18 10° NNW 14:43:39 56° NE 14:49:55 10° SE
H-2A R/B 4.3 14:40:35 10° SSW 14:44:12 39° W 14:47:53 10° NNW
Cosmos 1943 Rocket 2.4 14:39:20 10° NNW 14:44:41 46° NE 14:50:03 10° ESE
Cosmos 2333 4.5 14:40:14 10° SW 14:45:52 68° NW 14:51:24 11° NNE
Cosmos 2297 3.7 14:41:06 10° NNW 14:46:47 67° NE 14:52:28 10° SE
SL-8 Rocket 4.1 14:44:25 10° N 14:50:31 54° ENE 14:56:39 10° SSE
Cosmos 405 Rocket 3.8 14:47:16 10° NNW 14:51:02 48° W 14:54:49 10° S
Cosmos 1633 Rocket 3.3 14:47:25 10° N 14:51:40 44° ENE 14:55:51 10° SE
CZ-2C R/B 3.5 14:47:35 10° SE 14:52:04 34° ENE 14:56:25 10° N
Meteor 2-12 Rocket 4.4 14:46:29 10° N 14:52:41 76° ENE 14:58:49 10° SSE
CRYOSAT 2 4.3 14:48:17 10° N 14:53:11 69° E 14:58:04 10° S
ISS -1.9 14:51:16 10° SSW 14:53:47 20° SSE 14:55:02 16° ESE
Cosmos 1125 Rocket 4.1 14:49:24 10° NNW 14:54:32 60° WSW 14:59:39 10° S
Meteor 2-2 Rocket 4.4 14:48:57 10° SSW 14:54:55 86° WNW 15:00:49 10° NNE
Cosmos 2292 4.5 14:53:12 10° S 14:56:26 70° E 15:00:33 10° NNE
Cosmos 2322 Rocket 3.6 14:52:27 10° W 14:57:27 31° NW 15:02:27 10° NNE
USA 267 3.4 14:51:15 10° ESE 14:57:47 76° SSW 15:04:23 10° WNW
ARGOS 4.1 14:56:43 20° E 14:58:53 26° NE 15:03:18 10° N
SL-16 R/B 3.2 14:56:02 10° SSE 15:00:28 24° ESE 15:01:48 22° E
CZ-4B R/B 1.9 15:01:17 32° E 15:01:17 32° E 15:04:02 10° SSE
Cosmos 1356 3.3 14:57:58 10° NNW 15:01:25 84° ENE 15:04:51 10° SSE
SMAP 3.7 15:00:22 10° S 15:04:58 59° WSW 15:09:36 10° NNW
Cosmos 2181 Rocket 4.3 14:59:23 10° SSE 15:05:23 43° E 15:11:20 10° NNE
Cosmos 2208 Rocket 4.3 15:00:15 10° SW 15:05:32 72° WNW 15:10:44 11° NNE
Cosmos 2221 3.3 15:02:00 10° SSW 15:06:15 54° WNW 15:10:31 10° N
Cosmos 540 Rocket 4.1 15:01:46 10° SW 15:06:48 54° NW 15:11:47 10° NNE
Cosmos 44 Rocket 4.0 15:10:11 10° NW 15:14:58 39° NNE 15:16:46 29° ENE
Cosmos 1933 3.7 15:11:30 10° SSE 15:15:17 39° E 15:16:05 35° ENE
Cosmos 1606 2.6 15:12:49 10° S 15:16:41 65° E 15:19:09 21° NNE
Cosmos 2333 Rocket 2.8 15:11:58 10° SW 15:17:34 55° NW 15:22:14 15° NNE
SeaSat 1 4.3 15:17:33 14° NNE 15:18:28 15° NNE 15:21:11 10° NNW
Meteor 1-20 Rocket 4.2 15:15:05 10° NNW 15:20:59 81° ENE 15:26:51 10° SSE
IRS-1C Rocket 4.0 15:15:46 10° SSE 15:21:02 78° ENE 15:26:21 10° NNW
Cosmos 2278 Rocket 4.2 15:17:24 10° NW 15:22:16 30° WSW 15:27:06 10° SSW
Cosmos 841 Rocket 4.4 15:17:46 10° SW 15:22:47 45° NW 15:27:28 12° NNE
COSMOS 2428 3.1 15:17:34 10° SW 15:23:15 61° NW 15:27:48 16° NNE
USA 281 3.1 15:20:50 10° SE 15:27:24 84° ENE 15:34:01 10° NNW
YAOGAN 1 2.7 15:24:33 19° SE 15:27:29 50° ENE 15:31:41 10° N
Cosmos 1470 Rocket 3.5 15:23:44 10° N 15:28:02 56° ENE 15:32:17 10° SSE
CZ-4 R/B 4.3 15:23:58 10° SSE 15:28:06 75° ENE 15:32:15 10° NNW
USA 81 3.9 15:26:21 10° N 15:31:40 83° E 15:36:58 10° S
Feng Yun 1-1 Rocket 4.5 15:27:10 10° SSE 15:32:56 75° WSW 15:38:37 10° NNW
MOS 1 Rocket 4.3 15:34:44 33° ESE 15:34:44 33° ESE 15:38:58 10° SSE
COSMO-SKYMED 1 2.6 15:33:14 43° ENE 15:34:11 52° E 15:38:26 10° S
ERS-2 2.0 15:34:02 57° NE 15:34:35 69° ESE 15:38:14 10° S
EO 1 Delta rocket 4.3 15:32:33 12° NNE 15:37:08 53° E 15:43:13 10° S
Cosmos 2360 Rocket 3.7 15:32:54 10° W 15:37:45 29° NNW 15:41:37 14° NNE
Cosmos 2218 Rocket 3.9 15:32:07 10° NNW 15:38:20 89° E 15:44:29 10° S
Helios 1A Rocket 2.7 15:35:11 13° SSE 15:38:45 72° ENE 15:42:47 10° NNW
Sich 1 4.3 15:35:44 10° NNW 15:39:56 43° W 15:44:04 10° SSW
Meteor 1-25 Rocket 4.3 15:36:31 10° NNW 15:42:08 77° WSW 15:47:46 10° S
CSL-04 Debris 4.2 15:38:41 17° SE 15:42:48 57° ENE 15:48:11 10° NNW
H-2A R/B 2.0 15:40:38 17° SE 15:44:36 58° ENE 15:49:41 10° N
Okean-O 2.5 15:40:21 10° SSE 15:44:47 81° ENE 15:49:15 10° NNW
Cosmos 2219 Rocket 3.1 15:39:29 10° WSW 15:44:52 43° NW 15:48:44 18° NNE
Cosmos 1602 3.6 15:43:30 10° N 15:47:29 83° ENE 15:48:55 38° SSE
Cosmos 44 4.2 15:42:42 10° NW 15:47:47 53° SW 15:53:01 10° SSE
Cosmos 2366 rocket 4.0 15:41:47 10° NNW 15:48:02 84° W 15:54:13 10° S
Lacrosse 5 rocket 3.6 15:47:04 10° S 15:47:16 11° S 15:47:16 11° S
ADEOS Rocket 4.4 15:43:13 10° N 15:50:21 48° WNW 15:57:42 10° SW
Cosmos 1932 4.5 15:43:58 10° SW 15:50:29 74° SE 15:53:06 38° ENE
CZ-2D R/B 3.5 15:47:40 10° S 15:51:28 66° WSW 15:55:19 10° NNW
Cosmos 1656 Rocket 3.8 15:46:03 10° NNW 15:51:38 52° NE 15:52:28 48° ENE
Cosmos 1980 Rocket 4.0 15:48:55 10° NW 15:52:33 17° N 15:54:00 16° NNE
Okean O Rocket 4.0 15:51:13 10° SSW 15:54:47 24° W 15:58:24 10° NW
Cosmos 2237 Rocket 2.3 15:49:51 10° SW 15:55:29 76° NW 15:58:21 30° NNE
SL-16 R/B 4.1 15:51:25 10° WNW 15:55:34 20° NNW 15:58:13 15° NNE
SKYMED 3 4.4 15:57:33 60° NNE 15:58:19 83° ESE 16:02:40 10° SSW
Cosmos 1933 Rocket 3.4 15:54:11 10° N 15:58:41 75° ENE 15:58:51 74° E
Cosmos 1151 Rocket 2.8 15:55:32 10° S 15:59:49 84° E 15:59:58 81° NE
SJ-11-01 4.1 16:00:40 58° SE 16:01:29 74° ENE 16:06:15 10° NNW
Cosmos 2369 Rocket 2.1 15:58:03 10° NW 16:03:50 87° ENE 16:06:00 40° SE
CZ-4 R/B 1.6 16:02:50 27° S 16:04:54 69° WSW 16:08:56 10° NNW
USA 215 3.5 16:03:27 44° ESE 16:04:59 52° SE 16:11:21 10° SW
CSL-04 Rocket 3.5 16:03:05 35° SSE 16:05:23 75° ENE 16:10:42 10° NNW
Cosmos 2084 Rocket 4.5 16:01:32 10° WNW 16:05:25 35° N 16:05:34 34° N
Cosmos 1328 Rocket 3.5 16:04:23 10° S 16:08:14 71° S 16:08:14 71° S
NOSS 0 Rocket 4.3 16:03:26 10° SW 16:09:37 60° NW 16:12:54 28° NNE
Ariane Rocket 4.5 16:13:20 23° N 16:13:20 23° N 16:15:32 10° N
Cosmos 1980 4.2 16:08:24 10° SW 16:14:01 58° NW 16:16:33 32° NNE
Cosmos 2239 Rocket 4.3 16:08:43 10° N 16:14:51 66° ENE 16:15:58 55° ESE
Cosmos 389 Rocket 4.1 16:14:04 10° SW 16:17:11 32° WNW 16:17:23 32° WNW
H-2A R/B 4.1 16:13:54 10° N 16:17:16 24° WNW 16:20:39 10° WSW
SKYMED 2 3.9 16:21:52 58° NW 16:22:21 62° WNW 16:26:38 10° SSW
DEBRIS 4.4 16:13:06 10° W 16:24:57 45° SSW 16:26:05 39° S
Cosmos 1867 3.5 16:21:44 10° SW 16:26:56 77° S 16:26:56 77° S
Meteor 1-11 Rocket 4.2 16:21:35 10° N 16:25:48 47° NNE 16:25:48 47° NNE
Cosmos 1943 Rocket 3.0 16:23:13 10° NW 16:28:31 47° WSW 16:32:39 16° S
ISS -1.1 16:26:54 10° WSW 16:27:59 18° SW 16:27:59 18° SW
CZ-2C R/B 3.8 16:26:59 10° S 16:31:53 48° W 16:36:36 10° NNW
CZ-4B R/B 4.0 16:34:26 18° W 16:34:26 18° W 16:35:48 10° WSW
ARGOS 3.2 16:38:13 71° SSW 16:38:42 78° WSW 16:44:09 10° NNW
NOSS 3-3 (A) 4.3 16:32:15 10° NW 16:39:27 88° NE 16:40:59 62° SE
NOSS 3-3 (C) 4.3 16:32:21 10° NW 16:39:32 88° NE 16:41:03 63° SE
USA 267 4.4 16:37:37 20° S 16:41:28 36° SW 16:47:27 10° WNW
Cosmos 2322 Rocket 4.1 16:39:32 10° NW 16:43:21 18° N 16:44:16 17° N
SL-16 R/B 2.2 16:38:21 10° SW 16:43:43 78° WSW 16:43:43 78° WSW
Cosmos 1934 Rocket 4.1 16:38:57 10° N 16:44:20 62° NNE 16:44:20 62° NNE
Cosmos 1821 Rocket 4.2 16:43:55 10° NNW 16:50:05 69° W 16:53:36 27° S
SeaSat 1 4.5 16:57:20 19° N 16:57:20 19° N 16:59:02 10° NNW
Cosmos 44 Rocket 4.2 16:51:50 10° NW 16:55:29 47° NW 16:55:29 47° NW
Cosmos 2333 Rocket 4.0 16:58:37 10° WNW 17:03:04 23° NNW 17:04:14 21° N
COSMOS 2428 4.5 17:04:04 10° WNW 17:08:41 24° NNW 17:09:49 23° N
Cosmos 2360 Rocket 4.3 17:19:57 10° NW 17:23:23 17° N 17:23:23 17° N
H-2A R/B 3.8 17:21:16 17° SW 17:24:21 29° W 17:28:53 10° NNW
Cosmos 2219 Rocket 4.2 17:26:12 10° WNW 17:30:19 20° NNW 17:30:27 20° NNW
Cosmos 1980 Rocket 4.4 17:34:02 10° NNW 17:35:46 17° NNW 17:35:46 17° NNW
Cosmos 2237 Rocket 3.9 17:35:43 10° W 17:40:11 27° NW 17:40:11 27° NW
SL-16 R/B 4.4 17:37:56 10° NNW 17:40:04 16° NNW 17:40:04 16° NNW
Cosmos 2369 Rocket 4.2 17:42:52 10° NW 17:47:11 23° WSW 17:47:51 22° WSW
USA 215 4.1 17:50:48 43° WSW 17:50:48 43° WSW 17:54:58 10° WSW
